Time,TemperatureF,DewpointF,PressureIn,WindDirection,WindDirectionDegrees,WindSpeedMPH,WindSpeedGustMPH,Humidity,HourlyPrecipIn,Conditions,Clouds,dailyrainin,SoftwareType,DateUTC
2013-10-10 00:12:00,62.0,60.0,30.15,East,92,0.0,0.0,94,0.00,,,0.00,,2013-10-10 05:12:00,
2013-10-10 00:22:00,62.0,60.0,30.15,East,92,0.0,1.0,93,0.00,,,0.00,,2013-10-10 05:22:00,
2013-10-10 00:43:00,62.0,60.0,30.15,East,92,0.0,0.0,93,0.00,,,0.00,,2013-10-10 05:43:00,
2013-10-10 00:52:00,63.0,60.0,30.15,ENE,65,0.0,2.0,91,0.00,,,0.00,,2013-10-10 05:52:00,
2013-10-10 01:13:00,63.0,60.0,30.14,ENE,65,0.0,2.0,89,0.00,,,0.00,,2013-10-10 06:13:00,
2013-10-10 01:22:00,63.0,60.0,30.14,ENE,65,0.0,2.0,89,0.00,,,0.00,,2013-10-10 06:22:00,
2013-10-10 01:42:00,63.0,60.0,30.14,ENE,65,0.0,1.0,90,0.00,,,0.00,,2013-10-10 06:42:00,
2013-10-10 01:52:00,63.0,60.0,30.15,ENE,65,0.0,1.0,89,0.00,,,0.00,,2013-10-10 06:52:00,
2013-10-10 02:11:00,63.0,60.0,30.14,ENE,65,0.0,1.0,89,0.00,,,0.00,,2013-10-10 07:11:00,
2013-10-10 02:21:00,63.0,60.0,30.14,ENE,65,0.0,1.0,89,0.00,,,0.00,,2013-10-10 07:21:00,
2013-10-10 02:42:00,62.0,59.0,30.14,ENE,65,0.0,0.0,90,0.00,,,0.00,,2013-10-10 07:42:00,
2013-10-10 02:52:00,62.0,59.0,30.14,ENE,65,0.0,0.0,91,0.00,,,0.00,,2013-10-10 07:52:00,
2013-10-10 03:11:00,62.0,59.0,30.14,ENE,71,0.0,1.0,91,0.00,,,0.00,,2013-10-10 08:11:00,
2013-10-10 03:22:00,61.0,58.0,30.14,ENE,71,0.0,1.0,91,0.00,,,0.00,,2013-10-10 08:22:00,
2013-10-10 03:43:00,61.0,58.0,30.14,ENE,71,0.0,0.0,91,0.00,,,0.00,,2013-10-10 08:43:00,
2013-10-10 03:52:00,60.0,58.0,30.14,ENE,71,0.0,0.0,92,0.00,,,0.00,,2013-10-10 08:52:00,
2013-10-10 04:12:00,60.0,58.0,30.14,ENE,71,0.0,0.0,92,0.00,,,0.00,,2013-10-10 09:12:00,
2013-10-10 04:22:00,59.0,57.0,30.14,ENE,71,0.0,1.0,92,0.00,,,0.00,,2013-10-10 09:22:00,
2013-10-10 04:43:00,59.0,57.0,30.14,ENE,71,0.0,0.0,94,0.00,,,0.00,,2013-10-10 09:43:00,
2013-10-10 04:53:00,59.0,57.0,30.14,ENE,71,0.0,0.0,94,0.00,,,0.00,,2013-10-10 09:53:00,
2013-10-10 05:12:00,58.0,56.0,30.15,ENE,71,0.0,1.0,94,0.00,,,0.00,,2013-10-10 10:12:00,
2013-10-10 05:23:00,57.0,55.0,30.15,ENE,71,0.0,0.0,94,0.00,,,0.00,,2013-10-10 10:23:00,
2013-10-10 05:42:00,57.0,55.0,30.15,ENE,71,0.0,1.0,94,0.00,,,0.00,,2013-10-10 10:42:00,
2013-10-10 05:53:00,57.0,55.0,30.15,ENE,71,0.0,0.0,94,0.00,,,0.00,,2013-10-10 10:53:00,
2013-10-10 06:12:00,57.0,56.0,30.16,ENE,71,0.0,1.0,95,0.00,,,0.00,,2013-10-10 11:12:00,
2013-10-10 06:22:00,57.0,55.0,30.16,WNW,302,0.0,1.0,94,0.00,,,0.00,,2013-10-10 11:22:00,
2013-10-10 06:42:00,56.0,55.0,30.16,WNW,302,0.0,0.0,95,0.00,,,0.00,,2013-10-10 11:42:00,
2013-10-10 06:54:00,57.0,56.0,30.16,WNW,302,0.0,0.0,96,0.00,,,0.00,,2013-10-10 11:54:00,
2013-10-10 07:12:00,57.0,56.0,30.16,WNW,302,0.0,1.0,96,0.00,,,0.00,,2013-10-10 12:12:00,
2013-10-10 07:21:00,57.0,56.0,30.16,WNW,302,0.0,1.0,95,0.00,,,0.00,,2013-10-10 12:21:00,
2013-10-10 07:42:00,56.0,55.0,30.17,East,94,0.0,1.0,95,0.00,,,0.00,,2013-10-10 12:42:00,
2013-10-10 07:51:00,57.0,56.0,30.17,East,98,0.0,1.0,95,0.00,,,0.00,,2013-10-10 12:51:00,
2013-10-10 08:12:00,57.0,56.0,30.17,East,98,0.0,1.0,95,0.00,,,0.00,,2013-10-10 13:12:00,
2013-10-10 08:21:00,57.0,56.0,30.17,ENE,63,0.0,4.0,95,0.00,,,0.00,,2013-10-10 13:21:00,
2013-10-10 08:42:00,57.0,56.0,30.18,ENE,64,0.0,1.0,95,0.00,,,0.00,,2013-10-10 13:42:00,
2013-10-10 08:52:00,58.0,57.0,30.18,ENE,64,0.0,0.0,95,0.00,,,0.00,,2013-10-10 13:52:00,
2013-10-10 09:11:00,59.0,58.0,30.19,ENE,64,0.0,0.0,95,0.00,,,0.00,,2013-10-10 14:11:00,
2013-10-10 09:21:00,60.0,58.0,30.19,SSW,196,0.0,0.0,94,0.00,,,0.00,,2013-10-10 14:21:00,
2013-10-10 09:42:00,61.0,59.0,30.19,SSW,196,0.0,0.0,94,0.00,,,0.00,,2013-10-10 14:42:00,
2013-10-10 09:52:00,63.0,61.0,30.19,SSW,196,0.0,0.0,92,0.00,,,0.00,,2013-10-10 14:52:00,
2013-10-10 10:11:00,65.0,62.0,30.18,SE,133,0.0,0.0,90,0.00,,,0.00,,2013-10-10 15:11:00,
2013-10-10 10:22:00,67.0,63.0,30.18,SW,215,0.0,0.0,88,0.00,,,0.00,,2013-10-10 15:22:00,
2013-10-10 10:43:00,69.0,64.0,30.18,WNW,288,0.0,0.0,85,0.00,,,0.00,,2013-10-10 15:43:00,
2013-10-10 10:54:00,70.0,64.0,30.18,NW,305,0.0,3.0,82,0.00,,,0.00,,2013-10-10 15:54:00,
2013-10-10 11:13:00,72.0,65.0,30.18,NW,308,0.0,1.0,80,0.00,,,0.00,,2013-10-10 16:13:00,
2013-10-10 11:23:00,73.0,65.0,30.17,NW,304,0.0,4.0,77,0.00,,,0.00,,2013-10-10 16:23:00,
2013-10-10 11:42:00,74.0,65.0,30.17,NW,320,0.0,4.0,73,0.00,,,0.00,,2013-10-10 16:42:00,
2013-10-10 11:53:00,75.0,65.0,30.17,NE,55,0.0,1.0,72,0.00,,,0.00,,2013-10-10 16:53:00,
2013-10-10 12:12:00,77.0,66.0,30.17,South,178,0.0,2.0,69,0.00,,,0.00,,2013-10-10 17:12:00,
2013-10-10 12:23:00,76.0,66.0,30.17,NW,322,2.0,8.0,71,0.00,,,0.00,,2013-10-10 17:23:00,
2013-10-10 12:42:00,75.0,65.0,30.16,WNW,303,0.0,6.0,72,0.00,,,0.00,,2013-10-10 17:42:00,
2013-10-10 12:52:00,74.0,65.0,30.16,WNW,303,0.0,3.0,74,0.00,,,0.00,,2013-10-10 17:52:00,
2013-10-10 13:12:00,74.0,64.0,30.16,WNW,288,1.0,5.0,72,0.00,,,0.00,,2013-10-10 18:12:00,
2013-10-10 13:21:00,74.0,65.0,30.15,NW,311,0.0,4.0,73,0.00,,,0.00,,2013-10-10 18:21:00,
2013-10-10 13:42:00,74.0,64.0,30.14,NW,319,2.0,4.0,72,0.00,,,0.00,,2013-10-10 18:42:00,
2013-10-10 13:52:00,75.0,65.0,30.13,NNW,337,1.0,3.0,72,0.00,,,0.00,,2013-10-10 18:52:00,
2013-10-10 14:11:00,75.0,65.0,30.13,WNW,302,0.0,2.0,71,0.00,,,0.00,,2013-10-10 19:11:00,
2013-10-10 14:22:00,75.0,66.0,30.12,WNW,293,0.0,2.0,74,0.00,,,0.00,,2013-10-10 19:22:00,
2013-10-10 14:42:00,75.0,65.0,30.11,NW,309,0.0,3.0,72,0.00,,,0.00,,2013-10-10 19:42:00,
2013-10-10 14:52:00,75.0,65.0,30.11,ENE,64,0.0,5.0,70,0.00,,,0.00,,2013-10-10 19:52:00,
2013-10-10 15:12:00,75.0,64.0,30.11,ENE,73,0.0,3.0,68,0.00,,,0.00,,2013-10-10 20:12:00,
2013-10-10 15:22:00,76.0,63.0,30.10,East,79,0.0,4.0,64,0.00,,,0.00,,2013-10-10 20:22:00,
2013-10-10 15:42:00,76.0,64.0,30.10,SSE,148,0.0,2.0,66,0.00,,,0.00,,2013-10-10 20:42:00,
2013-10-10 15:52:00,77.0,63.0,30.09,ESE,105,0.0,5.0,62,0.00,,,0.00,,2013-10-10 20:52:00,
2013-10-10 16:12:00,77.0,63.0,30.09,East,82,1.0,4.0,61,0.00,,,0.00,,2013-10-10 21:12:00,
2013-10-10 16:22:00,77.0,63.0,30.08,NW,317,0.0,1.0,62,0.00,,,0.00,,2013-10-10 21:22:00,
2013-10-10 16:43:00,77.0,64.0,30.08,ENE,63,0.0,2.0,64,0.00,,,0.00,,2013-10-10 21:43:00,
2013-10-10 16:54:00,77.0,63.0,30.08,ENE,76,0.0,4.0,61,0.00,,,0.00,,2013-10-10 21:54:00,
2013-10-10 17:13:00,77.0,63.0,30.08,ENE,67,0.0,2.0,62,0.00,,,0.00,,2013-10-10 22:13:00,
2013-10-10 17:24:00,77.0,64.0,30.08,NE,44,0.0,2.0,64,0.00,,,0.00,,2013-10-10 22:24:00,
2013-10-10 17:43:00,76.0,64.0,30.08,East,87,0.0,2.0,67,0.00,,,0.00,,2013-10-10 22:43:00,
2013-10-10 17:53:00,75.0,65.0,30.07,South,184,0.0,2.0,70,0.00,,,0.00,,2013-10-10 22:53:00,
2013-10-10 18:12:00,75.0,65.0,30.07,East,91,0.0,1.0,70,0.00,,,0.00,,2013-10-10 23:12:00,
2013-10-10 18:23:00,75.0,64.0,30.07,East,92,0.0,1.0,69,0.00,,,0.00,,2013-10-10 23:23:00,
2013-10-10 18:43:00,74.0,64.0,30.06,East,92,0.0,0.0,72,0.00,,,0.00,,2013-10-10 23:43:00,
2013-10-10 18:52:00,73.0,65.0,30.06,ESE,102,0.0,1.0,75,0.00,,,0.00,,2013-10-10 23:52:00,
2013-10-10 19:11:00,72.0,65.0,30.06,ENE,61,0.0,0.0,78,0.00,,,0.00,,2013-10-11 00:11:00,
2013-10-10 19:22:00,70.0,64.0,30.06,ENE,61,0.0,0.0,82,0.00,,,0.00,,2013-10-11 00:22:00,
2013-10-10 19:42:00,69.0,64.0,30.06,ENE,61,0.0,0.0,84,0.00,,,0.00,,2013-10-11 00:42:00,
2013-10-10 19:52:00,67.0,62.0,30.06,ENE,61,0.0,1.0,85,0.00,,,0.00,,2013-10-11 00:52:00,
2013-10-10 20:11:00,66.0,62.0,30.06,ENE,61,0.0,1.0,87,0.00,,,0.00,,2013-10-11 01:11:00,
2013-10-10 20:22:00,65.0,62.0,30.06,ENE,61,0.0,0.0,89,0.00,,,0.00,,2013-10-11 01:22:00,
2013-10-10 20:42:00,64.0,61.0,30.07,ENE,61,0.0,1.0,91,0.00,,,0.00,,2013-10-11 01:42:00,
2013-10-10 20:52:00,64.0,62.0,30.07,ENE,61,0.0,1.0,92,0.00,,,0.00,,2013-10-11 01:52:00,
2013-10-10 21:12:00,63.0,61.0,30.07,ENE,61,0.0,1.0,92,0.00,,,0.00,,2013-10-11 02:12:00,
2013-10-10 21:22:00,63.0,61.0,30.07,ENE,61,0.0,1.0,93,0.00,,,0.00,,2013-10-11 02:22:00,
2013-10-10 21:42:00,62.0,60.0,30.07,ENE,61,0.0,0.0,93,0.00,,,0.00,,2013-10-11 02:42:00,
2013-10-10 21:52:00,62.0,60.0,30.07,ENE,61,0.0,0.0,93,0.00,,,0.00,,2013-10-11 02:52:00,
2013-10-10 22:11:00,61.0,59.0,30.07,ENE,76,0.0,0.0,93,0.00,,,0.00,,2013-10-11 03:11:00,
2013-10-10 22:23:00,61.0,59.0,30.08,ENE,76,1.0,3.0,93,0.00,,,0.00,,2013-10-11 03:23:00,
2013-10-10 22:44:00,60.0,58.0,30.07,ENE,76,0.0,0.0,94,0.00,,,0.00,,2013-10-11 03:44:00,
2013-10-10 22:54:00,60.0,58.0,30.07,ENE,76,0.0,1.0,94,0.00,,,0.00,,2013-10-11 03:54:00,
2013-10-10 23:13:00,61.0,59.0,30.07,ENE,76,0.0,0.0,94,0.00,,,0.00,,2013-10-11 04:13:00,
2013-10-10 23:24:00,61.0,59.0,30.07,ENE,76,0.0,0.0,94,0.00,,,0.00,,2013-10-11 04:24:00,
2013-10-10 23:44:00,61.0,59.0,30.07,ENE,76,0.0,0.0,94,0.00,,,0.00,,2013-10-11 04:44:00,
2013-10-10 23:53:00,60.0,58.0,30.06,ENE,76,0.0,0.0,94,0.00,,,0.00,,2013-10-11 04:53:00,